{"data":{"norad_id":64017,"epoch":"2026-05-25T02:31:58.174752Z","epoch_age_seconds":68993,"freshness":"FRESH","line1":"1 64017U 25101Z   26145.10553443  .00011641  00000+0  43176-3 0  9996","line2":"2 64017  42.9941 286.2655 0001810 269.5226  90.5419 15.27588698 58746","mean_motion":15.27588698,"eccentricity":0.000181,"inclination_deg":42.9941,"raan_deg":286.2655,"arg_perigee_deg":269.5226,"mean_anomaly_deg":90.5419,"bstar":0.00043176,"rev_number":5874,"period_min":94.266211964341,"perigee_km":481.78118125288,"apogee_km":484.26492119142,"semimajor_km":6861.1600512221,"source":"CELESTRAK","updated_at":"2026-05-25T13:38:20.222884Z"}}